This is the latest recevied weather packets stored in our database for station/object WB4YDL. If no packets are shown the sender has not sent any weather packets the latest 10 day(s).
| Time | Temp. | Humidity | Pressure | Rain* | Wind** | Luminosity | Snow |
|---|---|---|---|---|---|---|---|
| 1777594244 | 16.67° C | 59% | 1010.1 hPa | 0 mm | - | 26 W/m² | - |
| 1777593940 | 16.67° C | 55% | 1009.9 hPa | 0 mm | - | 37 W/m² | - |
| 1777593637 | 16.67° C | 51% | 1010 hPa | 0 mm | - | 45 W/m² | - |
| 1777593333 | 16.67° C | 52% | 1010 hPa | 0 mm | - | 48 W/m² | - |
| 1777593027 | 17.22° C | 51% | 1009.8 hPa | 0 mm | - | 47 W/m² | - |
| 1777592726 | 17.78° C | 51% | 1009.9 hPa | 0 mm | - | 45 W/m² | - |
| 1777592423 | 17.78° C | 49% | 1010.2 hPa | 0 mm | - | 56 W/m² | - |
| 1777592118 | 18.33° C | 49% | 1009.9 hPa | 0 mm | - | 77 W/m² | - |
| 1777591816 | 17.78° C | 48% | 1010 hPa | 0 mm | - | 121 W/m² | - |
| 1777591511 | 17.78° C | 50% | 1010.3 hPa | 0 mm | - | 107 W/m² | - |
| 1777591208 | 17.78° C | 51% | 1010.1 hPa | 0 mm | - | 87 W/m² | - |
| 1777590902 | 17.78° C | 50% | 1010.2 hPa | 0 mm | - | 118 W/m² | - |
| 1777590598 | 17.78° C | 48% | 1010.1 hPa | 0 mm | - | 124 W/m² | - |
| 1777590295 | 17.78° C | 54% | 1010 hPa | 0 mm | - | 96 W/m² | - |
| 1777589992 | 17.78° C | 48% | 1010.1 hPa | 0 mm | - | 97 W/m² | - |
| 1777589688 | 17.78° C | 49% | 1010.2 hPa | 0 mm | - | 184 W/m² | - |
| 1777589386 | 17.78° C | 48% | 1010.2 hPa | 0 mm | - | 153 W/m² | - |
| 1777589083 | 17.78° C | 53% | 1010 hPa | 0 mm | - | 148 W/m² | - |
| 1777588779 | 17.22° C | 45% | 1010.3 hPa | 0 mm | - | 86 W/m² | - |
| 1777588474 | 17.78° C | 48% | 1010.1 hPa | 0 mm | - | 167 W/m² | - |
| 1777588170 | 17.78° C | 46% | 1010.2 hPa | 0 mm | - | 143 W/m² | - |
| 1777587866 | 17.78° C | 48% | 1010 hPa | 0 mm | - | 224 W/m² | - |
| 1777587562 | 17.78° C | 51% | 1010 hPa | 0 mm | - | 208 W/m² | - |
| 1777587257 | 17.78° C | 46% | 1010.2 hPa | 0 mm | - | 176 W/m² | - |
| 1777586952 | 17.78° C | 48% | 1010.2 hPa | 0 mm | - | 233 W/m² | - |
* Rain latest hour (hover to see other rain measurements)
** Current wind speed in m/s (hover to see current wind gust speed)